CAPE
0 0 0 0 0 0 0 0 0 0 0 0 0 0 0 1 5 9 9 0 0 0 0 0 0 0 0 0 0 0 0 1 4 2 0 0 0 0 0 0 0 0 0
0 0 0 0 0 0 0 0 0 0 0 0 0 0 0 3 5 10 13 3 0 0 0 0 0 0 0 0 0 0 2 0 2 1 0 1 0 0 0 0 0 0 0
0 0 0 0 1 0 0 0 0 0 0 0 0 0 0 4 14 9 0 0 0 0 0 0 0 0 0 0 0 0 0 0 0 1 1 0 0 0 0 0 0 0 0
1 1 1 3 4 2 2 0 0 0 0 0 0 0 13 22 3 1 1 0 0 0 0 0 0 0 0 0 0 0 0 0 0 0 0 0 0 0 0 0 0 2 1
1 1 1 4 2 1 0 0 0 5 2 2 6 27 26 4 0 0 0 0 0 0 0 1 0 3 5 2 0 0 0 0 0 0 0 1 3 0 0 0 0 0 1
1 1 1 3 0 1 0 1 2 0 0 0 0 0 0 0 0 0 0 0 0 0 2 0 1 3 10 15 4 0 0 0 0 0 0 1 2 2 3 2 5 0 0
3 4 1 0 1 0 3 11 8 17 5 0 0 0 0 0 0 0 0 0 0 0 0 1 1 4 1 0 0 0 0 0 0 0 0 0 0 0 0 4 13 9 7
2 1 2 0 0 4 10 1 3 12 0 0 0 1 1 1 0 0 0 1 1 0 2 3 0 3 4 2 1 0 0 0 0 0 0 0 0 0 0 0 0 0 5
2 0 0 0 0 0 0 1 0 1 1 1 1 1 1 0 0 0 1 0 2 0 10 9 8 4 0 3 1 0 0 0 0 0 0 0 0 2 3 9 5 1 2
1 1 2 1 2 1 1 1 1 1 1 1 1 1 2 0 0 0 1 0 0 4 7 1 0 0 0 0 0 0 0 0 0 0 2 0 0 2 22 12 2 6 0
1 1 1 1 1 1 1 1 0 0 1 1 1 0 0 0 0 0 0 0 0 0 0 0 0 0 0 0 0 0 0 0 0 0 0 0 0 0 11 16 7 2 0
1 1 1 1 1 1 0 1 0 0 0 0 0 0 0 0 0 0 0 0 0 0 0 0 0 0 0 0 0 0 0 0 0 0 0 0 0 1 14 36 16 7 5
1 1 1 1 0 0 0 0 0 0 0 0 0 0 0 0 0 0 0 0 0 0 0 0 0 0 0 0 0 0 0 0 0 0 0 3 3 5 19 28 17 17 4
1 1 0 1 0 0 0 0 0 0 0 0 0 0 0 0 0 0 0 0 0 0 0 0 0 0 0 0 0 0 0 0 0 0 4 7 6 6 7 24 14 7 6
0 0 0 0 0 0 0 0 0 0 0 0 0 0 0 0 0 0 0 0 0 0 0 0 0 0 0 0 0 0 0 0 0 0 1 0 0 4 6 8 1 2 3
0 0 0 0 0 0 0 0 0 0 0 0 0 0 0 0 0 0 0 0 0 0 0 0 0 0 0 0 0 0 0 0 0 0 0 1 2 3 1 1 0 2 1
0 0 0 0 0 0 0 0 0 0 0 0 0 0 0 0 0 0 0 0 0 0 0 0 0 0 0 0 0 0 0 0 0 1 0 1 1 1 1 2 1 1 3
0 0 0 0 0 0 0 0 0 0 0 0 0 0 0 0 0 0 0 0 0 0 0 0 0 0 0 0 0 0 0 0 1 0 0 2 1 1 1 2 1 1 1
0 0 0 0 0 0 0 0 0 0 0 0 0 0 0 0 0 0 0 0 0 0 0 0 0 0 0 0 0 0 0 0 0 0 0 1 1 1 2 1 1 0 0
0 0 0 0 0 0 0 0 0 0 0 0 0 0 0 0 0 0 0 0 0 0 0 0 0 0 0 0 0 0 0 0 0 0 0 0 1 1 2 1 0 0 1
0 0 0 0 0 0 0 0 0 0 0 0 0 0 0 0 0 0 0 0 0 0 0 0 0 0 0 0 0 0 0 0 0 0 0 0 1 1 1 1 0 0 1
0 0 0 0 0 0 0 0 0 0 0 0 0 0 0 0 0 0 0 0 0 0 0 0 0 0 0 0 0 0 0 0 0 0 0 0 0 1 1 0 0 0 1
0 0 0 0 0 0 0 0 0 0 0 0 0 0 0 0 0 0 0 0 0 0 0 0 0 0 0 0 0 0 0 0 0 0 1 0 0 0 1 0 0 0 2
0 0 0 0 0 0 0 0 0 0 0 0 0 0 0 0 0 0 0 0 0 0 0 0 0 0 0 0 0 0 0 0 0 0 0 0 0 0 1 1 0 0 0
0 0 0 0 0 0 0 0 0 0 0 0 0 0 0 0 0 0 0 0 0 0 0 0 0 0 0 0 0 0 0 0 0 0 0 0 1 1 1 1 0 0 0
0 0 0 0 0 0 0 0 0 0 0 0 0 0 0 0 0 0 0 0 0 0 0 0 0 0 0 0 0 0 0 0 0 0 0 0 0 1 1 2 1 0 0
CIN
0 0 0 0 0 0 0 0 0 0 0 0 0 0 0 -16 -41 -46 -51 -16 0 0 0 0 0 0 0 0 0 0 0 0 0 0 0 0 0 0 0 0 0 0 0
0 0 0 0 0 0 0 0 0 0 0 0 0 0 0 -62 -53 -34 -29 -59 0 0 0 0 0 0 0 0 0 0 0 0 0 0 0 0 0 0 0 0 0 0 0
0 0 0 -2 -3 -3 0 0 0 0 0 0 0 0 0 -41 -37 -73 -12 0 0 0 0 0 0 0 0 0 0 0 0 0 0 0 0 0 0 0 0 0 0 0 0
-2 -3 -3 -1 -1 -7 -9 0 0 0 0 0 0 0 -26 -12 -28 -6 -17 0 0 0 0 0 0 0 0 0 0 0 0 0 0 0 0 0 0 0 0 0 -3 -13 -19
0 0 0 -1 -5 -6 -4 0 0 -20 -4 -14 -3 -3 -10 -5 0 0 0 0 0 0 0 -19 0 0 0 0 0 0 0 0 0 0 0 -10 -13 -13 -9 -2 -3 0 -16
0 0 0 0 0 -6 -10 -13 -11 -19 -1 0 0 0 0 0 0 0 0 0 0 0 -2 0 -1 -3 -1 -3 0 0 0 0 0 0 0 -8 -9 -12 -20 -22 -17 -1 0
0 0 0 -1 -6 -6 -12 -9 -11 -8 -14 0 0 0 0 0 0 0 0 0 0 0 0 -2 -1 -4 -8 0 0 0 0 0 0 0 0 0 0 0 0 -28 -10 -13 -11
0 0 -1 -1 0 -3 -2 -3 -7 -6 0 0 0 0 0 0 0 0 0 0 -5 0 -3 -5 -1 -5 -8 -8 -11 0 0 0 0 0 0 0 0 0 0 0 -14 -20 -33
0 -2 0 0 -1 -4 0 -1 0 -1 0 0 0 0 0 0 0 0 0 0 0 0 -3 -3 -2 -7 -3 -27 -15 -4 0 0 0 0 0 0 0 -26 -34 -21 -31 -30 -23
0 0 0 0 -5 -1 0 0 0 0 0 0 0 0 0 0 0 0 0 0 -2 -4 -5 -10 0 0 0 0 0 0 0 0 0 0 -20 0 0 -31 -14 -15 -18 -15 0
0 0 0 0 0 0 0 0 0 0 0 0 0 0 0 0 0 0 0 0 0 0 0 0 0 0 0 0 0 0 0 0 0 0 0 0 0 0 -27 -9 -9 -13 -12
0 0 0 0 0 0 0 0 0 0 0 0 0 0 0 0 0 0 0 0 0 0 0 0 0 0 0 0 0 0 0 0 0 0 0 0 0 -19 -22 -10 -9 -11 -12
0 0 0 0 0 0 0 0 0 0 0 0 0 0 0 0 0 0 0 0 0 0 0 0 0 0 0 0 0 0 0 0 0 0 -24 -37 -47 -40 -24 -14 -12 -6 -16
0 0 0 0 0 0 0 0 0 0 0 0 0 0 0 0 0 0 0 0 0 0 0 0 0 0 0 0 0 0 0 0 0 -5 -32 -37 -36 -26 -22 -5 -7 -9 -8
0 0 0 0 0 0 0 0 0 0 0 0 0 0 0 0 0 0 0 0 0 0 0 0 0 0 0 0 0 0 0 0 0 -13 -27 -9 0 -13 -12 -11 -3 -1 0
0 0 0 0 0 0 0 0 0 0 0 0 0 0 0 0 0 0 0 0 0 0 0 0 0 0 0 0 0 0 0 0 -17 -14 0 -9 -9 -16 -8 -13 0 -1 0
0 0 0 0 0 0 0 0 0 0 0 0 0 0 0 0 0 0 0 0 0 0 0 0 0 0 0 0 0 0 0 0 0 -33 0 0 0 0 0 0 0 0 0
0 0 0 0 0 0 0 0 0 0 0 0 0 0 0 0 0 0 0 0 0 0 0 0 0 0 0 0 0 0 0 0 -11 0 0 0 0 0 0 0 0 0 0
0 0 0 0 0 0 0 0 0 0 0 0 0 0 0 0 0 0 0 0 0 0 0 0 0 0 0 0 0 0 0 0 0 0 0 0 0 0 0 0 0 0 0
0 0 0 0 0 0 0 0 0 0 0 0 0 0 0 0 0 0 0 0 0 0 0 0 0 0 0 0 0 0 0 0 0 0 0 0 0 0 0 0 0 0 0
0 0 0 0 0 0 0 0 0 0 0 0 0 0 0 0 0 0 0 0 0 0 0 0 0 0 0 0 0 0 0 0 0 0 0 0 0 0 0 0 0 0 0
0 0 0 0 0 0 0 0 0 0 0 0 0 0 0 0 0 0 0 0 0 0 0 0 0 0 0 0 0 0 0 0 0 0 0 0 0 0 0 0 0 0 0
0 0 0 0 0 0 0 0 0 0 0 0 0 0 0 0 0 0 0 0 0 0 0 0 0 0 0 0 0 0 0 0 0 0 0 0 0 0 0 0 0 0 0
0 0 0 0 0 0 0 0 0 0 0 0 0 0 0 0 0 0 0 0 0 0 0 0 0 0 0 0 0 0 0 0 0 0 0 0 0 0 0 0 0 0 0
0 0 0 0 0 0 0 0 0 0 0 0 0 0 0 0 0 0 0 0 0 0 0 0 0 0 0 0 0 0 0 0 0 0 0 0 0 0 0 0 0 0 0
0 0 0 0 0 0 0 0 0 0 0 0 0 0 0 0 0 0 0 0 0 0 0 0 0 0 0 0 0 0 0 0 0 0 0 0 0 0 0 0 0 0 0
Wind_Speed
50 50 51 51 51 49 48 46 45 44 44 44 42 40 37 36 34 34 33 32 32 32 32 35 37 37 38 38 35 33 31 30 36 33 27 28 29 30 28 27 27 26 26
49 49 49 48 48 47 47 45 43 43 42 41 40 38 35 33 32 32 32 31 29 32 37 37 40 40 39 37 34 32 29 29 30 32 25 27 23 24 24 25 25 25 26
45 44 43 43 41 42 42 42 41 40 39 37 34 32 30 29 26 25 25 26 29 28 34 36 39 38 35 32 29 29 29 26 23 21 21 21 20 22 22 23 24 24 25
42 41 40 39 39 37 35 34 34 34 35 32 30 27 23 20 21 23 24 26 29 32 33 32 30 28 28 27 24 23 22 20 19 19 20 21 21 21 21 23 24 23 24
38 36 35 34 33 30 26 24 22 22 29 27 25 20 17 17 18 19 18 20 23 27 23 22 20 21 22 21 21 21 18 18 19 19 20 21 22 22 24 22 23 25 21
32 29 29 27 27 25 22 19 18 10 19 23 23 23 20 17 15 16 10 7 8 8 12 13 16 18 18 19 19 17 17 18 20 20 21 22 22 22 24 24 22 23 23
28 21 22 22 18 18 21 22 24 24 21 23 24 22 7 3 1 1 1 3 8 11 8 13 17 18 17 18 19 18 18 18 18 17 20 21 22 24 24 24 24 24 18
30 27 15 13 17 21 20 20 10 21 16 12 8 6 5 5 4 5 6 8 10 19 18 17 17 18 19 20 19 18 18 17 18 19 20 21 22 24 23 23 24 26 20
15 12 9 12 16 15 11 7 7 13 13 12 17 7 13 25 26 25 24 25 24 23 22 21 19 17 17 16 16 17 17 18 18 20 21 22 23 24 25 23 24 26 25
3 4 8 11 16 17 16 13 14 16 15 16 11 3 2 10 21 27 28 26 26 24 23 22 21 18 21 13 10 15 21 18 19 21 23 24 25 25 24 23 23 25 26
6 4 9 16 21 22 22 18 21 21 16 9 25 24 27 27 27 29 29 27 26 25 23 24 24 25 25 24 23 21 18 16 18 20 23 25 27 26 25 24 22 23 25
10 8 3 15 20 25 29 28 25 29 33 27 30 27 29 32 32 33 32 30 27 27 26 26 26 27 26 26 25 25 25 17 17 21 25 27 29 29 27 24 22 21 22
16 18 5 24 31 32 33 32 34 35 34 33 33 33 32 31 29 27 26 27 26 29 29 30 31 31 31 30 29 28 27 24 23 25 27 28 28 28 27 24 23 22 22
29 29 30 34 35 34 32 29 25 16 16 19 22 25 27 31 32 32 32 32 31 31 30 31 31 32 32 32 31 30 29 28 28 28 29 28 29 29 28 26 24 26 24
28 32 34 36 22 23 25 21 20 21 20 23 27 30 34 35 32 32 32 32 31 30 30 31 32 34 34 34 33 32 31 31 32 31 30 30 29 28 27 26 25 25 26
33 32 31 30 27 22 22 28 28 33 34 34 33 32 33 32 32 33 34 33 33 32 31 32 33 34 35 36 35 35 34 33 33 32 32 30 29 28 27 26 25 25 26
31 30 29 30 31 33 33 34 34 34 35 36 36 36 35 33 33 32 32 33 34 33 33 32 32 33 33 34 34 35 34 33 32 33 33 31 30 29 28 27 26 25 24
30 30 30 28 28 31 32 32 32 33 33 33 34 35 35 34 33 32 30 32 32 33 33 33 33 33 33 33 32 32 32 33 35 35 34 32 30 29 28 27 25 24 23
27 27 25 27 29 29 30 31 31 31 31 30 30 32 33 34 35 34 34 33 32 33 33 33 33 33 33 33 32 31 31 34 34 36 36 33 32 30 28 25 23 22 21
23 23 25 28 28 28 28 29 29 30 30 30 31 30 29 31 33 33 33 33 33 33 33 33 33 33 33 32 31 32 34 35 35 35 36 28 23 29 21 18 18 17 16
18 19 24 26 27 27 27 28 28 29 30 31 30 30 30 31 31 32 32 32 32 32 32 33 33 32 33 32 32 31 32 33 34 32 33 14 8 3 14 16 14 12 11
21 21 23 24 24 25 26 26 27 27 28 29 29 29 30 31 31 30 30 30 30 29 29 30 32 32 31 30 29 30 31 32 31 29 23 14 12 2 3 11 10 9 8
22 22 21 21 21 22 23 24 25 26 26 26 27 27 28 29 29 30 30 29 30 30 30 31 31 32 30 29 29 29 30 29 25 24 18 12 8 0 3 5 6 5 6
18 18 18 18 19 21 22 23 23 24 24 25 25 26 26 27 28 29 29 30 31 31 32 32 33 33 33 30 30 30 29 28 26 23 20 17 4 4 3 2 4 7 8
20 19 19 20 20 20 20 21 21 21 22 22 23 24 25 26 27 27 28 28 29 31 32 33 33 33 34 34 33 32 30 33 35 24 21 12 4 6 2 1 3 5 7
20 20 20 19 19 18 18 18 19 19 19 20 21 22 23 23 24 24 25 26 27 28 30 31 34 36 37 35 35 35 34 34 38 19 17 6 7 6 5 1 1 3 4
Wind_Direction
318 316 315 313 312 311 309 308 306 305 304 304 304 304 304 303 302 302 303 303 304 304 307 309 310 314 313 312 313 312 311 313 311 318 326 328 325 321 323 326 325 327 326
320 318 318 317 316 314 312 310 309 307 305 303 303 303 304 305 305 305 305 306 306 307 307 308 309 313 311 310 311 312 313 316 316 317 327 327 333 332 333 333 336 334 331
324 323 323 323 323 321 317 315 313 310 309 309 306 305 308 311 313 315 314 312 313 314 312 312 314 315 314 312 312 314 316 318 324 330 331 338 342 341 340 341 340 344 344
327 327 327 328 328 329 329 325 323 317 316 314 313 313 312 320 322 322 322 318 315 314 315 314 318 324 320 315 316 321 323 326 334 336 336 339 339 343 345 345 343 349 349
334 334 336 338 341 346 350 351 348 340 329 329 331 343 344 339 335 337 338 332 326 323 329 332 333 336 332 326 323 325 329 333 336 337 339 338 335 336 336 344 345 346 358
345 347 350 355 357 5 13 21 26 44 6 310 326 341 354 359 355 349 349 340 354 2 355 3 354 356 357 350 347 346 344 336 330 338 342 332 339 345 333 343 352 353 358
8 18 15 17 29 32 28 22 13 7 11 336 340 339 254 108 128 58 153 179 204 207 152 61 6 350 18 4 353 344 337 333 354 2 345 349 353 344 336 343 335 342 14
18 23 60 66 55 44 48 49 12 43 51 294 233 207 186 151 163 159 153 152 115 59 48 45 50 37 4 7 360 335 2 7 3 0 356 12 4 357 353 347 317 335 9
68 74 83 78 69 70 85 106 131 112 115 113 88 305 340 4 17 33 55 64 62 59 62 49 63 51 38 46 49 35 36 356 6 4 5 6 1 354 341 321 330 336 346
58 68 89 90 91 86 92 107 112 112 117 116 123 115 31 359 14 29 49 62 60 60 47 48 50 53 9 44 110 43 329 8 1 359 359 359 355 340 329 334 338 336 355
97 96 99 95 90 92 97 108 107 109 116 118 30 23 25 22 25 31 44 57 62 59 52 27 27 24 12 2 3 14 23 19 15 11 5 0 359 337 331 340 350 358 348
108 111 95 103 98 89 82 89 98 89 62 31 44 29 31 39 43 48 57 62 67 51 25 22 21 11 7 355 352 342 5 44 40 15 1 346 349 340 332 349 3 7 8
103 100 118 84 68 73 66 51 59 55 48 41 45 53 61 66 69 76 77 64 73 63 60 49 34 22 17 17 8 12 25 35 27 13 6 2 0 355 354 356 356 360 2
81 84 83 64 71 87 96 101 105 108 106 102 97 91 83 72 64 60 59 58 54 50 46 38 30 25 22 21 19 19 21 18 13 5 360 1 356 352 350 351 351 345 350
102 99 94 88 112 110 103 106 105 101 98 92 84 78 65 61 64 60 57 58 57 55 47 35 30 27 21 20 22 19 18 14 9 7 4 0 1 1 358 355 354 353 349
98 94 94 94 97 104 104 89 86 73 64 64 69 69 67 65 61 54 52 48 45 46 47 48 42 38 33 32 29 26 24 21 19 15 11 7 1 359 354 354 354 350 347
90 90 89 86 81 69 71 68 62 60 50 46 51 52 52 54 51 53 50 42 35 43 49 45 42 41 41 37 34 31 31 30 27 19 11 8 4 1 356 349 345 345 349
83 81 77 80 80 67 63 62 58 56 54 55 50 45 41 42 41 44 48 40 44 42 45 41 40 40 38 38 38 37 37 33 26 23 17 11 6 360 353 347 341 340 339
85 82 82 76 68 65 63 58 58 56 55 54 51 49 48 43 41 40 43 46 44 40 41 37 40 39 39 40 42 41 37 30 26 21 17 15 4 354 347 339 330 325 323
90 84 78 68 65 61 58 55 53 52 50 49 49 53 55 51 44 45 47 46 42 39 37 36 37 37 37 40 43 41 37 33 30 25 15 32 40 10 318 310 308 307 307
100 94 78 67 62 60 58 56 56 53 52 52 54 57 54 51 49 46 46 45 45 42 38 36 35 35 38 42 43 41 38 36 33 34 30 50 62 88 299 305 298 288 278
97 91 79 70 66 62 59 60 57 57 57 56 57 55 52 50 49 48 47 45 47 47 45 40 36 35 37 40 41 39 38 38 38 40 44 50 68 120 246 293 286 278 264
86 84 81 76 71 66 63 62 60 59 59 59 59 57 54 51 49 47 47 47 45 44 44 42 38 36 38 40 41 40 40 42 44 46 47 54 79 286 251 268 251 227 204
89 87 83 79 72 71 67 64 62 62 61 59 58 57 54 51 48 48 48 48 45 43 43 42 41 37 36 38 40 41 44 46 47 49 54 67 69 332 308 220 186 187 182
81 80 77 75 75 72 68 67 66 64 61 60 58 55 52 50 49 50 51 50 47 43 41 41 40 38 36 34 37 40 44 40 38 53 61 73 5 338 336 230 193 189 184
74 73 74 75 75 72 70 69 67 66 64 61 56 53 52 51 52 53 52 50 48 45 41 40 37 34 32 36 36 36 39 38 29 346 66 29 -0 359 354 342 262 185 187